Weather History for KEUG - October, 2012

Change the Weather History Date:

Thursday, October 4, 2012

  Actual Average Record
Temperature  
Mean Temperature 57 °F 56 °F  
Max Temperature 76 °F 70 °F 86 °F (1964)
Min Temperature 37 °F 43 °F 27 °F (1916)
Degree Days  
Heating Degree Days 8 9  
Month to date heating degree days 18 33  
Since 1 July heating degree days 137 221  
Cooling Degree Days 0 0  
Month to date cooling degree days 0 0  
Year to date cooling degree days 230 238  
Growing Degree Days 6 (Base 50)    
Moisture  
Dew Point 30 °F    
Average Humidity 43    
Maximum Humidity 67    
Minimum Humidity 19    
Precipitation  
Precipitation 0.00 in 0.06 in 0.95 in (1965)
Month to date precipitation 0.00 0.23  
Year to date precipitation 30.86 27.53  
Snow  
Snow 0.00 in - - ()
Month to date snowfall 0.0  
Since 1 July snowfall 0.0  
Since 1 September snowfall 0.0  
Snow Depth 0.00 in    
Sea Level Pressure  
Sea Level Pressure 30.10 in    
Wind  
Wind Speed 7 mph (NNE)    
Max Wind Speed 17 mph    
Max Gust Speed 22 mph    
Visibility 10 miles    
Events      
T = Trace of Precipitation, MM = Missing Value Source: NWS Daily Summary

Daily Weather History Graph

Daily Weather History Graph

Search for Another Location

Airport or City:

Trip Planner

Search our weather history database for the weather conditions in past years. The results will help you decide how hot, cold, wet, or windy it might be!

Date:

Astronomy

Oct. 04, 2012 Rise Set
Actual Time 7:14 AM PDT 6:47 PM PDT
Civil Twilight 6:45 AM PDT 7:15 PM PDT
Nautical Twilight 6:12 AM PDT 7:49 PM PDT
Astronomical Twilight 5:38 AM PDT 8:23 PM PDT
Moon 9:17 PM PDT (10/4) 11:46 AM PDT (10/4)
Length of Visible Light 12h 29m
Length of Day
11h 32m
Waning Gibbous, 81% of the Moon is Illuminated
Oct 4
Waning Gibbous
Oct 8
Last Quarter
Oct 15
New
Oct 21
First Quarter
Oct 29
Full

Hourly Weather History & Observations

Time (PDT) Temp. Windchill Dew Point Humidity Pressure Visibility Wind Dir Wind Speed Gust Speed Precip Events Conditions
12:54 AM 51.1 °F - 28.0 °F 41% 30.08 in 10.0 mi North 10.4 mph - N/A   Clear
1:54 AM 48.9 °F - 28.9 °F 46% 30.09 in 10.0 mi North 8.1 mph - N/A   Clear
2:54 AM 45.0 °F - 28.0 °F 52% 30.09 in 10.0 mi Calm Calm - N/A   Clear
3:54 AM 46.0 °F 43.9 °F 28.9 °F 51% 30.09 in 10.0 mi NNE 4.6 mph - N/A   Clear
4:54 AM 43.0 °F 40.3 °F 32.0 °F 65% 30.09 in 10.0 mi NE 4.6 mph - N/A   Clear
5:54 AM 44.1 °F 42.5 °F 30.0 °F 58% 30.10 in 10.0 mi NE 3.5 mph - N/A   Clear
6:54 AM 41.0 °F - 30.0 °F 65% 30.11 in 10.0 mi Calm Calm - N/A   Clear
7:54 AM 43.0 °F 41.3 °F 30.0 °F 60% 30.12 in 10.0 mi ESE 3.5 mph - N/A   Clear
8:54 AM 48.9 °F - 32.0 °F 52% 30.14 in 10.0 mi Calm Calm - N/A   Clear
9:54 AM 55.0 °F - 32.0 °F 42% 30.14 in 10.0 mi Calm Calm - N/A   Clear
10:54 AM 61.0 °F - 32.0 °F 34% 30.14 in 10.0 mi NNE 11.5 mph - N/A   Clear
11:54 AM 64.0 °F - 30.9 °F 29% 30.14 in 10.0 mi North 9.2 mph - N/A   Clear
12:54 PM 69.1 °F - 30.9 °F 24% 30.13 in 10.0 mi NNE 12.7 mph 17.3 mph N/A   Clear
1:54 PM 71.1 °F - 30.9 °F 23% 30.11 in 10.0 mi NNE 9.2 mph - N/A   Clear
2:54 PM 73.0 °F - 30.0 °F 20% 30.09 in 10.0 mi NNE 9.2 mph 20.7 mph N/A   Clear
3:54 PM 75.0 °F - 30.0 °F 19% 30.08 in 10.0 mi North 11.5 mph - N/A   Clear
4:54 PM 73.9 °F - 30.0 °F 20% 30.09 in 10.0 mi NNE 15.0 mph - N/A   Clear
5:54 PM 72.0 °F - 30.0 °F 21% 30.08 in 10.0 mi North 13.8 mph - N/A   Clear
6:54 PM 64.9 °F - 30.0 °F 27% 30.09 in 10.0 mi North 10.4 mph - N/A   Clear
7:54 PM 57.9 °F - 28.0 °F 32% 30.09 in 10.0 mi North 9.2 mph - N/A   Clear
8:54 PM 55.9 °F - 28.0 °F 34% 30.09 in 10.0 mi North 10.4 mph - N/A   Clear
9:54 PM 52.0 °F - 26.1 °F 37% 30.10 in 10.0 mi Calm Calm - N/A   Clear
10:54 PM 50.0 °F - 25.0 °F 38% 30.11 in 10.0 mi Calm Calm - N/A   Clear
11:54 PM 48.9 °F - 28.0 °F 44% 30.12 in 10.0 mi Calm Calm - N/A   Clear